Airfield :
LOGIN :

Register | Disclaimer

   EN    FR    IT 

 










Legend :    VFR   Marginal VFR   IFR   Intensive IFR   Very Intensive IFR
Visi :
Ceiling :
>= 8 km
>= 3000ft
5 to 8 km
1000 to 3000 ft
1500m to 5 km
500 to 1000 ft
800 to 1500m
200 to 500 ft
< 800m
< 200 ft
Symbols :   Thunderstorms  Fog  Heavy snow  Heavy precipitations  Wind > 20 kt
SIGMETs :     Misc.  Thunderstorms  Icing  Turbulence  Mountain Waves  Volcanic Ashes







- Airport Elevation : 15 ft
- IATA code : FCO


LIRF - Roma Leonardo da Vinci Fiumicino

CURRENT METAR :
  • 220850Z VRB02KT CAVOK 27/19 Q1017 NOSIG

EXPIRED METARs :
  • 220820Z 03005KT 360V060 CAVOK 25/19 Q1017 NOSIG
  • 220750Z 05005KT 030V090 CAVOK 24/19 Q1017 NOSIG
  • 220720Z 05004KT CAVOK 23/20 Q1017 NOSIG
  • 220650Z 07006KT CAVOK 22/19 Q1017 NOSIG
  • 220620Z 08005KT CAVOK 21/19 Q1017 NOSIG

TAF TAF LIRF
Valid from the 22 at 06:00 until the 23 at 12:00 UTC


220500Z 2206/2312 VRB05KT CAVOK
BECMG 2208/2210 24010KT
BECMG 2217/2219 VRB05KT
TEMPO 2302/2306 1500 BR BKN014
BECMG 2308/2310 24010KT
No reported NOTAMs for that airfield.



MET'MAP, your aeronautical weather chart ! - Copyright ORBIFLY December 2007 - Disclaimer

ORBIFLY MET'MAP TEAM :

Programming & Development : Alexandra Zaïnal
Concept & Development : Baudouin d'Aumeries
Co-Development & Prog : Marc-Olivier Méhu
Technical & hardware support : Manuel Goepfert

Contact : metmap@orbifly.com




SOURCES & CREDITS :

   NOAA